ELECTRON KICK STAGE R/B, 61226

Orbit data source: Space-Track

ELECTRON KICK STAGE R/B, 61226 is space debris in SSO originally from a launch on Fri, 20 Sep 2024 UTC launched from the Rocket Lab Launch Complex (RLLC). Debris objects in space refer to the collection of defunct objects orbiting the Earth. Examples of debris include non-operational satellites, rocket bodies, and fragments generated from explosions, collisions, or faulty payload assembly.

Loading next visibility...
Identifier
61226, 2024-172G
Orbit
SSO
Country
Flag of USUS
Related business
Manufacturer
Rocket Lab
Mission
Spacecraft
Bus & Motor
KICK STAGE, CURIE
Mass
~50 kg wet, ~50 kg dry
Launch date (UTC)
2024-09-20 (2 years ago)
Launch vehicle
Unknown
Launch site
Rocket Lab Launch Complex (RLLC)
Object type
Payload
Rocket body
Debris
Shape & HBR
Trunc Cone, 0.7 m
Radar Cross Section
0.760 m², Large (>1 m²)

Expand to show TLE details & history
Last TLE update: 13 hours ago

TLE from 13 hours ago
0 ELECTRON KICK STAGE R/B
1 61226U 24172G   26171.36765043  .00003367  00000-0  27964-3 0  9994
2 61226  98.0136 281.9804 0048250  99.0262 261.6425 14.98577388 95173
Epoch: 2026-06-20T08:49Z
TLE epoch observation values (Epoch: 2026-06-20T08:49:24.997Z)
Latitude
0.00003°
Longitude
-118.95704°
Altitude
579.367 km
Speed
7.568 km/s
True Right ascension
18h 47m 55s
True Declination
0° 00' 00"
Sunlit
Object was in full shadow at epoch
Visualization orbit readout
Latitude
Unknown
Longitude
Unknown
Altitude
Unknown
Speed
Unknown
Apparent Right ascension
Unknown
Apparent Declination
Unknown
Sunlit
N/A
Visualization observer readout
Local Sidereal Time
08:33:30
Azimuth
Unknown
Elevation
Unknown
Doppler factor
Unknown
Orbital elements
Apogee altitude
601.829 km
Perigee altitude
534.796 km
Semi-major axis
6,946.449 km
Eccentricity
0.00483
Inclination
98.0136°
RAAN
281.9804°
Arg. of periapsis
99.0262°
True anomaly
261.09595°
Mean anomaly
261.6425°
Eccentric anomaly
261.36918°
Mean motion
3.74886 °/min
Orbital period
96.03 mins
BSTAR
0.00027964
Loading maneuver chart data...
Computing Atmospheric mass density...
Loading historical data...
Loading historical data...
Loading historical data...
Loading historical data...
Loading historical data...
Loading historical data...
Loading historical data...

Documentation

Showing up to 5 results
|